Time,TemperatureF,DewpointF,PressureIn,WindDirection,WindDirectionDegrees,WindSpeedMPH,WindSpeedGustMPH,Humidity,HourlyPrecipIn,Conditions,Clouds,dailyrainin,SoftwareType,DateUTC
2013-09-19 00:01:00,55.8,52.9,29.84,WSW,242,1.0,8.0,90,0.00,,,0.00,meteohub,2013-09-19 07:01:00,
2013-09-19 00:06:00,55.8,52.5,29.84,WSW,241,2.0,8.0,89,0.00,,,0.00,meteohub,2013-09-19 07:06:00,
2013-09-19 00:11:00,55.8,52.9,29.84,SW,227,1.0,6.0,90,0.00,,,0.00,meteohub,2013-09-19 07:11:00,
2013-09-19 00:16:00,55.8,52.9,29.84,WSW,242,2.0,6.0,90,0.00,,,0.00,meteohub,2013-09-19 07:16:00,
2013-09-19 00:21:00,55.6,52.7,29.84,WSW,247,1.0,6.0,90,0.00,,,0.00,meteohub,2013-09-19 07:21:00,
2013-09-19 00:26:00,55.6,52.7,29.84,SSW,213,0.0,6.0,90,0.00,,,0.00,meteohub,2013-09-19 07:26:00,
2013-09-19 00:31:00,55.6,52.7,29.84,SSW,212,0.0,6.0,90,0.00,,,0.00,meteohub,2013-09-19 07:31:00,
2013-09-19 00:36:00,55.6,52.7,29.84,SSW,212,0.0,5.0,90,0.00,,,0.00,meteohub,2013-09-19 07:36:00,
2013-09-19 00:41:00,55.6,52.7,29.84,SW,214,0.0,3.0,90,0.00,,,0.00,meteohub,2013-09-19 07:41:00,
2013-09-19 00:46:00,55.6,52.7,29.84,SW,214,1.0,4.0,90,0.00,,,0.00,meteohub,2013-09-19 07:46:00,
2013-09-19 00:51:00,55.6,52.7,29.84,WSW,255,1.0,4.0,90,0.00,,,0.00,meteohub,2013-09-19 07:51:00,
2013-09-19 00:56:00,55.6,52.7,29.84,West,260,0.0,3.0,90,0.00,,,0.00,meteohub,2013-09-19 07:56:00,
2013-09-19 01:01:00,55.6,52.7,29.84,WSW,242,0.0,3.0,90,0.00,,,0.00,meteohub,2013-09-19 08:01:00,
2013-09-19 01:06:00,55.6,52.7,29.84,WSW,255,1.0,3.0,90,0.00,,,0.00,meteohub,2013-09-19 08:06:00,
2013-09-19 01:11:00,55.6,52.7,29.83,WSW,257,0.0,3.0,90,0.00,,,0.00,meteohub,2013-09-19 08:11:00,
2013-09-19 01:17:00,55.6,52.7,29.83,WSW,257,0.0,2.0,90,0.00,,,0.00,meteohub,2013-09-19 08:17:00,
2013-09-19 01:22:00,55.6,52.3,29.83,WSW,258,0.0,2.0,89,0.00,,,0.00,meteohub,2013-09-19 08:22:00,
2013-09-19 01:27:00,55.4,52.2,29.83,WSW,258,0.0,2.0,89,0.00,,,0.00,meteohub,2013-09-19 08:27:00,
2013-09-19 01:32:00,55.2,52.3,29.83,West,259,0.0,1.0,90,0.00,,,0.00,meteohub,2013-09-19 08:32:00,
2013-09-19 01:37:00,55.2,52.3,29.83,West,260,0.0,2.0,90,0.00,,,0.00,meteohub,2013-09-19 08:37:00,
2013-09-19 01:42:00,55.2,52.3,29.83,WSW,252,1.0,2.0,90,0.00,,,0.00,meteohub,2013-09-19 08:42:00,
2013-09-19 01:47:00,55.2,52.3,29.83,West,264,3.0,3.0,90,0.00,,,0.00,meteohub,2013-09-19 08:47:00,
2013-09-19 01:52:00,55.2,52.3,29.83,SW,224,0.0,5.0,90,0.00,,,0.00,meteohub,2013-09-19 08:52:00,
2013-09-19 01:57:00,55.4,52.5,29.84,WSW,257,3.0,8.0,90,0.00,,,0.00,meteohub,2013-09-19 08:57:00,
2013-09-19 02:02:00,55.4,52.5,29.83,South,187,0.0,8.0,90,0.00,,,0.00,meteohub,2013-09-19 09:02:00,
2013-09-19 02:07:00,55.4,52.5,29.83,WSW,246,3.0,8.0,90,0.00,,,0.00,meteohub,2013-09-19 09:07:00,
2013-09-19 02:12:00,55.2,52.7,29.83,West,268,6.0,6.0,91,0.00,,,0.00,meteohub,2013-09-19 09:12:00,
2013-09-19 02:17:00,55.2,52.7,29.83,WSW,241,3.0,7.0,91,0.00,,,0.00,meteohub,2013-09-19 09:17:00,
2013-09-19 02:22:00,55.2,52.7,29.83,SW,229,2.0,7.0,91,0.00,,,0.00,meteohub,2013-09-19 09:22:00,
2013-09-19 02:27:00,55.2,52.7,29.83,South,190,1.0,7.0,91,0.00,,,0.00,meteohub,2013-09-19 09:27:00,
2013-09-19 02:32:00,55.2,52.9,29.83,SSW,206,5.0,8.0,92,0.00,,,0.00,meteohub,2013-09-19 09:32:00,
2013-09-19 02:37:00,55.0,52.7,29.83,SW,218,2.0,8.0,92,0.00,,,0.00,meteohub,2013-09-19 09:37:00,
2013-09-19 02:42:00,55.0,52.7,29.83,SSW,212,0.0,7.0,92,0.00,,,0.00,meteohub,2013-09-19 09:42:00,
2013-09-19 02:47:00,55.0,52.7,29.83,SSE,163,0.0,7.0,92,0.00,,,0.00,meteohub,2013-09-19 09:47:00,
2013-09-19 02:52:00,55.0,52.7,29.83,SW,220,0.0,7.0,92,0.00,,,0.00,meteohub,2013-09-19 09:52:00,
2013-09-19 02:57:00,55.0,52.7,29.83,SW,218,0.0,4.0,92,0.00,,,0.00,meteohub,2013-09-19 09:57:00,
2013-09-19 03:02:00,55.0,52.7,29.83,SW,236,0.0,3.0,92,0.00,,,0.00,meteohub,2013-09-19 10:02:00,
2013-09-19 03:07:00,55.0,52.7,29.83,South,176,0.0,4.0,92,0.00,,,0.00,meteohub,2013-09-19 10:07:00,
2013-09-19 03:12:00,54.9,52.5,29.82,South,189,0.0,4.0,92,0.00,,,0.00,meteohub,2013-09-19 10:12:00,
2013-09-19 03:17:00,54.9,52.5,29.82,West,261,0.0,4.0,92,0.00,,,0.00,meteohub,2013-09-19 10:17:00,
2013-09-19 03:22:00,54.9,52.5,29.82,SW,218,0.0,4.0,92,0.00,,,0.00,meteohub,2013-09-19 10:22:00,
2013-09-19 03:27:00,54.9,52.5,29.82,SW,218,0.0,3.0,92,0.00,,,0.00,meteohub,2013-09-19 10:27:00,
2013-09-19 03:32:00,54.9,52.9,29.82,SW,218,0.0,3.0,93,0.00,,,0.00,meteohub,2013-09-19 10:32:00,
2013-09-19 03:37:00,54.9,52.9,29.82,SW,218,0.0,2.0,93,0.00,,,0.00,meteohub,2013-09-19 10:37:00,
2013-09-19 03:42:00,54.9,52.5,29.82,SW,218,1.0,2.0,92,0.00,,,0.00,meteohub,2013-09-19 10:42:00,
2013-09-19 03:47:00,54.9,52.5,29.82,SW,218,0.0,1.0,92,0.00,,,0.00,meteohub,2013-09-19 10:47:00,
2013-09-19 03:52:00,54.9,52.5,29.82,SW,218,0.0,1.0,92,0.00,,,0.00,meteohub,2013-09-19 10:52:00,
2013-09-19 03:57:00,54.9,52.5,29.82,SW,218,0.0,1.0,92,0.00,,,0.00,meteohub,2013-09-19 10:57:00,
2013-09-19 04:02:00,54.9,52.5,29.82,SW,217,0.0,1.0,92,0.00,,,0.00,meteohub,2013-09-19 11:02:00,
2013-09-19 04:07:00,54.9,52.5,29.82,SW,232,0.0,3.0,92,0.00,,,0.00,meteohub,2013-09-19 11:07:00,
2013-09-19 04:12:00,54.9,52.5,29.82,SW,232,0.0,3.0,92,0.00,,,0.00,meteohub,2013-09-19 11:12:00,
2013-09-19 04:17:00,54.7,52.3,29.82,SW,233,1.0,3.0,92,0.00,,,0.00,meteohub,2013-09-19 11:17:00,
2013-09-19 04:22:00,54.7,52.3,29.82,West,272,1.0,3.0,92,0.00,,,0.00,meteohub,2013-09-19 11:22:00,
2013-09-19 04:27:00,54.7,52.3,29.82,West,266,1.0,3.0,92,0.00,,,0.00,meteohub,2013-09-19 11:27:00,
2013-09-19 04:32:00,54.7,52.3,29.82,WSW,248,0.0,3.0,92,0.00,,,0.00,meteohub,2013-09-19 11:32:00,
2013-09-19 04:37:00,54.7,52.7,29.82,West,262,0.0,5.0,93,0.00,,,0.00,meteohub,2013-09-19 11:37:00,
2013-09-19 04:42:00,54.5,52.5,29.82,West,263,0.0,5.0,93,0.00,,,0.00,meteohub,2013-09-19 11:42:00,
2013-09-19 04:47:00,54.3,52.3,29.82,West,265,1.0,5.0,93,0.00,,,0.00,meteohub,2013-09-19 11:47:00,
2013-09-19 04:52:00,54.3,52.3,29.82,West,260,1.0,2.0,93,0.00,,,0.00,meteohub,2013-09-19 11:52:00,
2013-09-19 04:57:00,54.3,52.3,29.82,West,261,0.0,2.0,93,0.00,,,0.00,meteohub,2013-09-19 11:57:00,
2013-09-19 05:02:00,54.3,52.3,29.82,West,261,0.0,2.0,93,0.00,,,0.00,meteohub,2013-09-19 12:02:00,
2013-09-19 05:07:00,54.1,52.2,29.82,West,261,0.0,2.0,93,0.00,,,0.00,meteohub,2013-09-19 12:07:00,
2013-09-19 05:12:00,54.1,52.2,29.82,West,259,0.0,1.0,93,0.00,,,0.00,meteohub,2013-09-19 12:12:00,
2013-09-19 05:17:00,54.0,52.0,29.82,West,259,0.0,1.0,93,0.00,,,0.00,meteohub,2013-09-19 12:17:00,
2013-09-19 05:22:00,54.0,52.0,29.82,West,262,0.0,1.0,93,0.00,,,0.00,meteohub,2013-09-19 12:22:00,
2013-09-19 05:27:00,54.0,52.3,29.82,West,261,1.0,1.0,94,0.00,,,0.00,meteohub,2013-09-19 12:27:00,
2013-09-19 05:32:00,54.0,52.3,29.82,West,262,0.0,1.0,94,0.00,,,0.00,meteohub,2013-09-19 12:32:00,
2013-09-19 05:37:00,54.0,52.3,29.82,West,260,0.0,1.0,94,0.00,,,0.00,meteohub,2013-09-19 12:37:00,
2013-09-19 05:42:00,54.0,52.3,29.82,WSW,258,0.0,1.0,94,0.00,,,0.00,meteohub,2013-09-19 12:42:00,
2013-09-19 05:47:00,53.8,52.2,29.82,West,261,0.0,0.0,94,0.00,,,0.00,meteohub,2013-09-19 12:47:00,
2013-09-19 05:52:00,53.8,52.2,29.82,West,261,0.0,0.0,94,0.00,,,0.00,meteohub,2013-09-19 12:52:00,
2013-09-19 05:57:00,53.6,52.0,29.83,WSW,258,0.0,0.0,94,0.00,,,0.00,meteohub,2013-09-19 12:57:00,
2013-09-19 06:02:00,53.6,52.0,29.82,West,262,0.0,0.0,94,0.00,,,0.00,meteohub,2013-09-19 13:02:00,
2013-09-19 06:07:00,53.6,52.0,29.83,West,261,0.0,0.0,94,0.00,,,0.00,meteohub,2013-09-19 13:07:00,
2013-09-19 06:12:00,53.6,52.0,29.82,West,260,0.0,0.0,94,0.00,,,0.00,meteohub,2013-09-19 13:12:00,
2013-09-19 06:17:00,53.4,51.8,29.82,West,261,0.0,0.0,94,0.00,,,0.00,meteohub,2013-09-19 13:17:00,
2013-09-19 06:22:00,53.4,51.8,29.83,WSW,258,0.0,0.0,94,0.00,,,0.00,meteohub,2013-09-19 13:22:00,
2013-09-19 06:27:00,53.2,51.6,29.83,WSW,258,0.0,0.0,94,0.00,,,0.00,meteohub,2013-09-19 13:27:00,
2013-09-19 06:32:00,53.2,51.6,29.83,WSW,258,0.0,0.0,94,0.00,,,0.00,meteohub,2013-09-19 13:32:00,
2013-09-19 06:37:00,53.2,51.6,29.83,WSW,258,0.0,0.0,94,0.00,,,0.00,meteohub,2013-09-19 13:37:00,
2013-09-19 06:42:00,53.2,51.8,29.83,West,262,0.0,0.0,95,0.00,,,0.00,meteohub,2013-09-19 13:42:00,
2013-09-19 06:47:00,53.4,52.0,29.83,West,261,1.0,0.0,95,0.00,,,0.00,meteohub,2013-09-19 13:47:00,
2013-09-19 06:52:00,53.6,52.2,29.83,West,262,0.0,2.0,95,0.00,,,0.00,meteohub,2013-09-19 13:52:00,
2013-09-19 06:57:00,53.8,52.3,29.83,West,261,0.0,2.0,95,0.00,,,0.00,meteohub,2013-09-19 13:57:00,
2013-09-19 07:02:00,53.8,52.3,29.83,WSW,258,1.0,2.0,95,0.00,,,0.00,meteohub,2013-09-19 14:02:00,
2013-09-19 07:07:00,53.8,52.2,29.83,West,261,0.0,2.0,94,0.00,,,0.00,meteohub,2013-09-19 14:07:00,
2013-09-19 07:12:00,53.6,52.0,29.84,West,261,0.0,2.0,94,0.00,,,0.00,meteohub,2013-09-19 14:12:00,
2013-09-19 07:17:00,53.8,52.3,29.83,West,260,0.0,1.0,95,0.00,,,0.00,meteohub,2013-09-19 14:17:00,
2013-09-19 07:22:00,53.8,52.3,29.84,West,261,0.0,1.0,95,0.00,,,0.00,meteohub,2013-09-19 14:22:00,
2013-09-19 07:27:00,54.0,52.5,29.84,West,259,0.0,1.0,95,0.00,,,0.00,meteohub,2013-09-19 14:27:00,
2013-09-19 07:32:00,54.0,52.5,29.83,West,260,0.0,1.0,95,0.00,,,0.00,meteohub,2013-09-19 14:32:00,
2013-09-19 07:37:00,54.1,52.7,29.84,West,261,0.0,1.0,95,0.00,,,0.00,meteohub,2013-09-19 14:37:00,
2013-09-19 07:42:00,54.3,52.9,29.84,West,260,0.0,1.0,95,0.00,,,0.00,meteohub,2013-09-19 14:42:00,
2013-09-19 07:47:00,54.7,53.2,29.84,West,261,1.0,2.0,95,0.00,,,0.00,meteohub,2013-09-19 14:47:00,
2013-09-19 07:52:00,54.9,53.2,29.84,West,261,1.0,3.0,94,0.00,,,0.00,meteohub,2013-09-19 14:52:00,
2013-09-19 07:57:00,55.0,53.4,29.84,West,261,1.0,3.0,94,0.00,,,0.00,meteohub,2013-09-19 14:57:00,
2013-09-19 08:02:00,55.2,53.6,29.84,SW,215,1.0,3.0,94,0.00,,,0.00,meteohub,2013-09-19 15:02:00,
2013-09-19 08:07:00,55.2,53.6,29.84,SW,214,2.0,4.0,94,0.00,,,0.00,meteohub,2013-09-19 15:07:00,
2013-09-19 08:12:00,55.6,54.0,29.84,SW,214,0.0,4.0,94,0.00,,,0.00,meteohub,2013-09-19 15:12:00,
2013-09-19 08:17:00,55.8,54.1,29.85,SW,228,1.0,4.0,94,0.00,,,0.00,meteohub,2013-09-19 15:17:00,
2013-09-19 08:22:00,55.9,54.0,29.84,WSW,256,0.0,3.0,93,0.00,,,0.00,meteohub,2013-09-19 15:22:00,
2013-09-19 08:27:00,56.1,54.1,29.85,SW,230,0.0,2.0,93,0.00,,,0.00,meteohub,2013-09-19 15:27:00,
2013-09-19 08:32:00,56.5,54.1,29.85,SW,232,0.0,2.0,92,0.00,,,0.00,meteohub,2013-09-19 15:32:00,
2013-09-19 08:37:00,56.7,54.7,29.85,WSW,237,2.0,3.0,93,0.00,,,0.00,meteohub,2013-09-19 15:37:00,
2013-09-19 08:42:00,56.8,54.5,29.85,WSW,240,0.0,3.0,92,0.00,,,0.00,meteohub,2013-09-19 15:42:00,
2013-09-19 08:47:00,57.0,54.5,29.85,SW,232,2.0,3.0,91,0.00,,,0.00,meteohub,2013-09-19 15:47:00,
2013-09-19 08:52:00,57.4,54.9,29.85,SW,236,1.0,4.0,91,0.00,,,0.00,meteohub,2013-09-19 15:52:00,
2013-09-19 08:57:00,57.7,55.2,29.85,WSW,237,0.0,4.0,91,0.00,,,0.00,meteohub,2013-09-19 15:57:00,
2013-09-19 09:03:00,58.1,55.2,29.85,SW,236,0.0,3.0,90,0.00,,,0.00,meteohub,2013-09-19 16:03:00,
2013-09-19 09:08:00,58.6,55.8,29.85,WSW,247,1.0,3.0,90,0.00,,,0.00,meteohub,2013-09-19 16:08:00,
2013-09-19 09:13:00,59.2,55.9,29.85,WSW,251,1.0,4.0,89,0.00,,,0.00,meteohub,2013-09-19 16:13:00,
2013-09-19 09:18:00,59.5,55.9,29.85,WSW,240,1.0,4.0,88,0.00,,,0.00,meteohub,2013-09-19 16:18:00,
2013-09-19 09:23:00,59.7,55.8,29.85,SW,227,2.0,4.0,87,0.00,,,0.00,meteohub,2013-09-19 16:23:00,
2013-09-19 09:28:00,60.3,56.3,29.85,WSW,239,1.0,4.0,87,0.00,,,0.00,meteohub,2013-09-19 16:28:00,
2013-09-19 09:33:00,60.6,56.5,29.85,WSW,241,1.0,4.0,86,0.00,,,0.00,meteohub,2013-09-19 16:33:00,
2013-09-19 09:38:00,61.0,56.5,29.85,SW,217,0.0,4.0,85,0.00,,,0.00,meteohub,2013-09-19 16:38:00,
2013-09-19 09:43:00,61.3,56.8,29.85,West,261,0.0,3.0,85,0.00,,,0.00,meteohub,2013-09-19 16:43:00,
2013-09-19 09:48:00,61.9,57.0,29.85,WSW,240,1.0,3.0,84,0.00,,,0.00,meteohub,2013-09-19 16:48:00,
2013-09-19 09:53:00,62.2,57.0,29.85,WSW,249,0.0,4.0,83,0.00,,,0.00,meteohub,2013-09-19 16:53:00,
2013-09-19 09:58:00,62.4,56.8,29.86,NW,319,0.0,4.0,82,0.00,,,0.00,meteohub,2013-09-19 16:58:00,
2013-09-19 10:03:00,63.0,57.4,29.85,SSW,195,1.0,4.0,82,0.00,,,0.00,meteohub,2013-09-19 17:03:00,
2013-09-19 10:08:00,63.1,56.8,29.85,West,274,0.0,4.0,80,0.00,,,0.00,meteohub,2013-09-19 17:08:00,
2013-09-19 10:13:00,63.3,57.0,29.85,WNW,298,0.0,4.0,80,0.00,,,0.00,meteohub,2013-09-19 17:13:00,
2013-09-19 10:18:00,64.0,57.7,29.85,West,261,1.0,3.0,80,0.00,,,0.00,meteohub,2013-09-19 17:18:00,
2013-09-19 10:23:00,64.2,57.2,29.85,SW,224,0.0,4.0,78,0.00,,,0.00,meteohub,2013-09-19 17:23:00,
2013-09-19 10:28:00,64.6,57.6,29.85,West,273,1.0,5.0,78,0.00,,,0.00,meteohub,2013-09-19 17:28:00,
2013-09-19 10:33:00,65.1,57.7,29.85,West,266,1.0,5.0,77,0.00,,,0.00,meteohub,2013-09-19 17:33:00,
2013-09-19 10:38:00,65.7,57.9,29.85,WNW,285,2.0,5.0,76,0.00,,,0.00,meteohub,2013-09-19 17:38:00,
2013-09-19 10:43:00,65.7,57.6,29.85,WNW,285,0.0,4.0,75,0.00,,,0.00,meteohub,2013-09-19 17:43:00,
2013-09-19 10:48:00,65.8,57.7,29.85,WSW,239,0.0,4.0,75,0.00,,,0.00,meteohub,2013-09-19 17:48:00,
2013-09-19 10:53:00,66.4,57.9,29.85,WNW,297,0.0,4.0,74,0.00,,,0.00,meteohub,2013-09-19 17:53:00,
2013-09-19 10:58:00,66.9,57.9,29.85,North,0,2.0,3.0,73,0.00,,,0.00,meteohub,2013-09-19 17:58:00,
2013-09-19 11:03:00,67.1,57.7,29.85,WNW,298,2.0,4.0,72,0.00,,,0.00,meteohub,2013-09-19 18:03:00,
2013-09-19 11:08:00,66.9,57.6,29.85,WNW,300,4.0,4.0,72,0.00,,,0.00,meteohub,2013-09-19 18:08:00,
2013-09-19 11:13:00,66.7,57.4,29.85,NW,323,1.0,4.0,72,0.00,,,0.00,meteohub,2013-09-19 18:13:00,
2013-09-19 11:18:00,66.4,57.0,29.85,WNW,297,3.0,5.0,72,0.00,,,0.00,meteohub,2013-09-19 18:18:00,
2013-09-19 11:23:00,65.8,57.4,29.85,WNW,296,3.0,5.0,74,0.00,,,0.00,meteohub,2013-09-19 18:23:00,
2013-09-19 11:28:00,65.7,57.2,29.85,NNW,327,1.0,5.0,74,0.00,,,0.00,meteohub,2013-09-19 18:28:00,
2013-09-19 11:33:00,65.8,57.4,29.85,WNW,285,4.0,5.0,74,0.00,,,0.00,meteohub,2013-09-19 18:33:00,
2013-09-19 11:38:00,65.8,57.0,29.85,WNW,291,2.0,5.0,73,0.00,,,0.00,meteohub,2013-09-19 18:38:00,
2013-09-19 11:43:00,65.7,57.2,29.85,NW,310,3.0,6.0,74,0.00,,,0.00,meteohub,2013-09-19 18:43:00,
2013-09-19 11:49:00,65.7,57.2,29.84,West,270,3.0,6.0,74,0.00,,,0.00,meteohub,2013-09-19 18:49:00,
2013-09-19 11:54:00,65.8,57.4,29.84,NW,312,0.0,5.0,74,0.00,,,0.00,meteohub,2013-09-19 18:54:00,
2013-09-19 11:59:00,66.6,58.1,29.84,WNW,298,2.0,5.0,74,0.00,,,0.00,meteohub,2013-09-19 18:59:00,
2013-09-19 12:04:00,67.5,58.1,29.84,WNW,297,0.0,5.0,72,0.00,,,0.00,meteohub,2013-09-19 19:04:00,
2013-09-19 12:09:00,67.8,57.7,29.84,NW,306,2.0,5.0,70,0.00,,,0.00,meteohub,2013-09-19 19:09:00,
2013-09-19 12:14:00,67.6,57.9,29.84,NW,308,3.0,4.0,71,0.00,,,0.00,meteohub,2013-09-19 19:14:00,
2013-09-19 12:19:00,66.9,57.2,29.84,WNW,299,5.0,5.0,71,0.00,,,0.00,meteohub,2013-09-19 19:19:00,
2013-09-19 12:24:00,66.9,57.6,29.84,WNW,301,3.0,8.0,72,0.00,,,0.00,meteohub,2013-09-19 19:24:00,
2013-09-19 12:29:00,67.6,57.9,29.84,SW,222,3.0,8.0,71,0.00,,,0.00,meteohub,2013-09-19 19:29:00,
2013-09-19 12:34:00,67.8,57.7,29.84,West,266,1.0,10.0,70,0.00,,,0.00,meteohub,2013-09-19 19:34:00,
2013-09-19 12:39:00,67.8,57.2,29.83,SW,231,1.0,10.0,69,0.00,,,0.00,meteohub,2013-09-19 19:39:00,
2013-09-19 12:44:00,67.3,57.2,29.83,WSW,238,8.0,10.0,70,0.00,,,0.00,meteohub,2013-09-19 19:44:00,
2013-09-19 12:49:00,66.2,56.8,29.83,West,268,1.0,8.0,72,0.00,,,0.00,meteohub,2013-09-19 19:49:00,
2013-09-19 12:54:00,66.4,57.0,29.83,NW,323,0.0,10.0,72,0.00,,,0.00,meteohub,2013-09-19 19:54:00,
2013-09-19 12:59:00,66.7,57.4,29.83,West,276,1.0,10.0,72,0.00,,,0.00,meteohub,2013-09-19 19:59:00,
2013-09-19 13:04:00,66.7,57.7,29.83,West,270,3.0,10.0,73,0.00,,,0.00,meteohub,2013-09-19 20:04:00,
2013-09-19 13:09:00,67.3,58.3,29.83,WSW,253,1.0,9.0,73,0.00,,,0.00,meteohub,2013-09-19 20:09:00,
2013-09-19 13:14:00,67.1,57.7,29.83,WNW,283,2.0,8.0,72,0.00,,,0.00,meteohub,2013-09-19 20:14:00,
2013-09-19 13:19:00,66.7,57.4,29.83,NW,308,4.0,8.0,72,0.00,,,0.00,meteohub,2013-09-19 20:19:00,
2013-09-19 13:24:00,66.0,57.2,29.83,WSW,238,3.0,9.0,73,0.00,,,0.00,meteohub,2013-09-19 20:24:00,
2013-09-19 13:29:00,65.5,57.4,29.83,West,274,5.0,10.0,75,0.00,,,0.00,meteohub,2013-09-19 20:29:00,
2013-09-19 13:34:00,66.4,57.4,29.83,WSW,254,1.0,10.0,73,0.00,,,0.00,meteohub,2013-09-19 20:34:00,
2013-09-19 13:39:00,66.9,57.2,29.83,WSW,249,4.0,10.0,71,0.00,,,0.00,meteohub,2013-09-19 20:39:00,
2013-09-19 13:44:00,67.1,57.0,29.83,WSW,241,4.0,10.0,70,0.00,,,0.00,meteohub,2013-09-19 20:44:00,
2013-09-19 13:49:00,67.1,57.0,29.82,West,271,6.0,9.0,70,0.00,,,0.00,meteohub,2013-09-19 20:49:00,
2013-09-19 13:54:00,66.9,56.5,29.82,WSW,258,3.0,9.0,69,0.00,,,0.00,meteohub,2013-09-19 20:54:00,
2013-09-19 13:59:00,67.3,56.8,29.82,SW,230,4.0,9.0,69,0.00,,,0.00,meteohub,2013-09-19 20:59:00,
2013-09-19 14:04:00,66.7,56.3,29.82,SW,234,3.0,11.0,69,0.00,,,0.00,meteohub,2013-09-19 21:04:00,
2013-09-19 14:09:00,66.0,55.9,29.81,SSW,208,2.0,11.0,70,0.00,,,0.00,meteohub,2013-09-19 21:09:00,
2013-09-19 14:14:00,65.5,55.8,29.81,WSW,241,9.0,11.0,71,0.00,,,0.00,meteohub,2013-09-19 21:14:00,
2013-09-19 14:19:00,65.1,55.9,29.81,WSW,248,9.0,11.0,72,0.00,,,0.00,meteohub,2013-09-19 21:19:00,
2013-09-19 14:24:00,65.7,56.3,29.81,WSW,243,9.0,11.0,72,0.00,,,0.00,meteohub,2013-09-19 21:24:00,
2013-09-19 14:29:00,65.8,56.1,29.81,SW,231,0.0,11.0,71,0.00,,,0.00,meteohub,2013-09-19 21:29:00,
2013-09-19 14:34:00,65.7,55.2,29.81,WNW,284,5.0,11.0,69,0.00,,,0.00,meteohub,2013-09-19 21:34:00,
2013-09-19 14:39:00,66.0,55.6,29.80,West,274,5.0,10.0,69,0.00,,,0.00,meteohub,2013-09-19 21:39:00,
2013-09-19 14:45:00,66.0,55.6,29.80,WSW,251,3.0,10.0,69,0.00,,,0.00,meteohub,2013-09-19 21:45:00,
2013-09-19 14:50:00,66.0,55.6,29.81,SW,230,6.0,10.0,69,0.00,,,0.00,meteohub,2013-09-19 21:50:00,
2013-09-19 14:55:00,65.8,55.4,29.80,SW,230,5.0,11.0,69,0.00,,,0.00,meteohub,2013-09-19 21:55:00,
2013-09-19 15:00:00,65.7,55.6,29.81,West,276,7.0,12.0,70,0.00,,,0.00,meteohub,2013-09-19 22:00:00,
2013-09-19 15:05:00,65.1,55.0,29.81,WSW,258,7.0,12.0,70,0.00,,,0.00,meteohub,2013-09-19 22:05:00,
2013-09-19 15:10:00,64.9,55.8,29.80,WSW,256,7.0,13.0,72,0.00,,,0.00,meteohub,2013-09-19 22:10:00,
2013-09-19 15:15:00,65.3,55.2,29.80,WSW,247,4.0,13.0,70,0.00,,,0.00,meteohub,2013-09-19 22:15:00,
2013-09-19 15:20:00,65.7,55.6,29.80,WSW,256,6.0,13.0,70,0.00,,,0.00,meteohub,2013-09-19 22:20:00,
2013-09-19 15:25:00,66.0,55.9,29.80,SW,235,10.0,12.0,70,0.00,,,0.00,meteohub,2013-09-19 22:25:00,
2013-09-19 15:30:00,65.8,55.4,29.80,WSW,256,3.0,12.0,69,0.00,,,0.00,meteohub,2013-09-19 22:30:00,
2013-09-19 15:35:00,65.7,55.6,29.80,WSW,246,5.0,12.0,70,0.00,,,0.00,meteohub,2013-09-19 22:35:00,
2013-09-19 15:40:00,66.4,55.6,29.80,West,269,9.0,12.0,68,0.00,,,0.00,meteohub,2013-09-19 22:40:00,
2013-09-19 15:45:00,66.7,55.4,29.79,SSW,212,3.0,11.0,67,0.00,,,0.00,meteohub,2013-09-19 22:45:00,
2013-09-19 15:50:00,66.6,55.2,29.79,SW,235,11.0,11.0,67,0.00,,,0.00,meteohub,2013-09-19 22:50:00,
2013-09-19 15:55:00,66.6,55.2,29.79,WSW,256,6.0,11.0,67,0.00,,,0.00,meteohub,2013-09-19 22:55:00,
2013-09-19 16:00:00,66.9,55.6,29.79,SW,217,7.0,12.0,67,0.00,,,0.00,meteohub,2013-09-19 23:00:00,
2013-09-19 16:05:00,66.6,55.6,29.79,SW,233,4.0,12.0,68,0.00,,,0.00,meteohub,2013-09-19 23:05:00,
2013-09-19 16:10:00,66.6,55.6,29.79,West,268,8.0,12.0,68,0.00,,,0.00,meteohub,2013-09-19 23:10:00,
2013-09-19 16:15:00,66.4,55.9,29.78,SW,224,5.0,12.0,69,0.00,,,0.00,meteohub,2013-09-19 23:15:00,
2013-09-19 16:20:00,66.2,56.1,29.78,WSW,237,3.0,12.0,70,0.00,,,0.00,meteohub,2013-09-19 23:20:00,
2013-09-19 16:25:00,66.6,56.1,29.78,West,270,5.0,11.0,69,0.00,,,0.00,meteohub,2013-09-19 23:25:00,
2013-09-19 16:30:00,66.7,56.3,29.78,WSW,249,2.0,11.0,69,0.00,,,0.00,meteohub,2013-09-19 23:30:00,
2013-09-19 16:35:00,67.3,56.3,29.78,WSW,252,3.0,11.0,68,0.00,,,0.00,meteohub,2013-09-19 23:35:00,
2013-09-19 16:40:00,66.7,56.3,29.78,NW,314,5.0,10.0,69,0.00,,,0.00,meteohub,2013-09-19 23:40:00,
2013-09-19 16:45:00,66.0,55.9,29.78,West,266,7.0,11.0,70,0.00,,,0.00,meteohub,2013-09-19 23:45:00,
2013-09-19 16:50:00,66.0,55.9,29.78,SW,214,7.0,11.0,70,0.00,,,0.00,meteohub,2013-09-19 23:50:00,
2013-09-19 16:55:00,65.8,56.1,29.78,West,279,8.0,11.0,71,0.00,,,0.00,meteohub,2013-09-19 23:55:00,
2013-09-19 17:00:00,65.3,56.1,29.78,WSW,254,5.0,10.0,72,0.00,,,0.00,meteohub,2013-09-20 00:00:00,
2013-09-19 17:05:00,65.5,56.7,29.77,WSW,255,1.0,10.0,73,0.00,,,0.00,meteohub,2013-09-20 00:05:00,
2013-09-19 17:10:00,65.8,56.1,29.77,SW,216,3.0,10.0,71,0.00,,,0.00,meteohub,2013-09-20 00:10:00,
2013-09-19 17:15:00,64.9,55.8,29.77,WSW,247,7.0,12.0,72,0.00,,,0.00,meteohub,2013-09-20 00:15:00,
2013-09-19 17:20:00,64.2,55.8,29.77,WSW,249,7.0,12.0,74,0.00,,,0.00,meteohub,2013-09-20 00:20:00,
2013-09-19 17:25:00,64.0,55.9,29.77,WSW,238,4.0,12.0,75,0.00,,,0.00,meteohub,2013-09-20 00:25:00,
2013-09-19 17:30:00,63.9,56.1,29.76,SSW,197,0.0,13.0,76,0.00,,,0.00,meteohub,2013-09-20 00:30:00,
2013-09-19 17:35:00,63.9,55.8,29.76,SW,235,3.0,13.0,75,0.00,,,0.00,meteohub,2013-09-20 00:35:00,
2013-09-19 17:40:00,64.0,55.9,29.76,SW,224,2.0,13.0,75,0.00,,,0.00,meteohub,2013-09-20 00:40:00,
2013-09-19 17:45:00,64.0,55.9,29.76,SW,228,8.0,13.0,75,0.00,,,0.00,meteohub,2013-09-20 00:45:00,
2013-09-19 17:51:00,63.3,55.9,29.77,WSW,243,8.0,15.0,77,0.00,,,0.00,meteohub,2013-09-20 00:51:00,
2013-09-19 17:56:00,62.8,55.8,29.77,WSW,237,3.0,15.0,78,0.00,,,0.00,meteohub,2013-09-20 00:56:00,
2013-09-19 18:01:00,62.4,55.8,29.77,SW,232,12.0,16.0,79,0.00,,,0.00,meteohub,2013-09-20 01:01:00,
2013-09-19 18:06:00,62.1,55.8,29.77,SW,235,7.0,16.0,80,0.00,,,0.00,meteohub,2013-09-20 01:06:00,
2013-09-19 18:11:00,62.1,56.1,29.76,WSW,252,9.0,16.0,81,0.00,,,0.00,meteohub,2013-09-20 01:11:00,
2013-09-19 18:16:00,62.1,56.1,29.76,WNW,292,5.0,14.0,81,0.00,,,0.00,meteohub,2013-09-20 01:16:00,
2013-09-19 18:21:00,62.2,56.3,29.76,SW,227,8.0,12.0,81,0.00,,,0.00,meteohub,2013-09-20 01:21:00,
2013-09-19 18:26:00,62.1,56.5,29.76,WSW,245,9.0,12.0,82,0.00,,,0.00,meteohub,2013-09-20 01:26:00,
2013-09-19 18:31:00,61.3,56.1,29.76,West,266,6.0,13.0,83,0.00,,,0.00,meteohub,2013-09-20 01:31:00,
2013-09-19 18:36:00,61.2,56.3,29.76,SW,230,6.0,13.0,84,0.00,,,0.00,meteohub,2013-09-20 01:36:00,
2013-09-19 18:41:00,61.0,56.1,29.76,SW,229,10.0,13.0,84,0.00,,,0.00,meteohub,2013-09-20 01:41:00,
2013-09-19 18:46:00,60.4,55.9,29.76,WSW,238,10.0,14.0,85,0.00,,,0.00,meteohub,2013-09-20 01:46:00,
2013-09-19 18:51:00,59.9,55.9,29.76,SW,226,7.0,16.0,87,0.00,,,0.00,meteohub,2013-09-20 01:51:00,
2013-09-19 18:56:00,59.4,55.4,29.76,WSW,251,4.0,16.0,87,0.00,,,0.00,meteohub,2013-09-20 01:56:00,
2013-09-19 19:01:00,59.0,55.8,29.77,West,275,8.0,16.0,89,0.00,,,0.00,meteohub,2013-09-20 02:01:00,
2013-09-19 19:06:00,58.8,55.6,29.76,West,279,8.0,15.0,89,0.00,,,0.00,meteohub,2013-09-20 02:06:00,
2013-09-19 19:11:00,58.6,55.4,29.76,West,279,5.0,15.0,89,0.00,,,0.00,meteohub,2013-09-20 02:11:00,
2013-09-19 19:16:00,58.6,55.8,29.76,SSW,206,5.0,15.0,90,0.00,,,0.00,meteohub,2013-09-20 02:16:00,
2013-09-19 19:21:00,58.5,55.6,29.76,West,276,6.0,14.0,90,0.00,,,0.00,meteohub,2013-09-20 02:21:00,
2013-09-19 19:26:00,58.5,55.6,29.75,WSW,250,7.0,14.0,90,0.00,,,0.00,meteohub,2013-09-20 02:26:00,
2013-09-19 19:31:00,58.5,55.6,29.75,WSW,253,7.0,14.0,90,0.00,,,0.00,meteohub,2013-09-20 02:31:00,
2013-09-19 19:36:00,58.5,55.6,29.75,West,272,7.0,14.0,90,0.00,,,0.00,meteohub,2013-09-20 02:36:00,
2013-09-19 19:41:00,58.5,55.6,29.75,SSW,213,6.0,14.0,90,0.00,,,0.00,meteohub,2013-09-20 02:41:00,
2013-09-19 19:46:00,58.3,55.4,29.76,WNW,282,8.0,14.0,90,0.00,,,0.00,meteohub,2013-09-20 02:46:00,
2013-09-19 19:51:00,58.3,55.4,29.76,WSW,254,5.0,14.0,90,0.00,,,0.00,meteohub,2013-09-20 02:51:00,
2013-09-19 19:56:00,58.3,55.4,29.76,SW,221,10.0,13.0,90,0.00,,,0.00,meteohub,2013-09-20 02:56:00,
2013-09-19 20:01:00,57.9,55.0,29.76,West,262,3.0,15.0,90,0.00,,,0.00,meteohub,2013-09-20 03:01:00,
2013-09-19 20:06:00,57.9,55.0,29.76,West,262,6.0,15.0,90,0.00,,,0.00,meteohub,2013-09-20 03:06:00,
2013-09-19 20:11:00,57.7,54.9,29.77,SW,229,5.0,15.0,90,0.00,,,0.00,meteohub,2013-09-20 03:11:00,
2013-09-19 20:16:00,57.6,54.7,29.77,WSW,249,7.0,13.0,90,0.00,,,0.00,meteohub,2013-09-20 03:16:00,
2013-09-19 20:21:00,57.6,55.0,29.77,SW,224,3.0,15.0,91,0.00,,,0.00,meteohub,2013-09-20 03:21:00,
2013-09-19 20:26:00,57.4,54.9,29.77,West,268,8.0,15.0,91,0.00,,,0.00,meteohub,2013-09-20 03:26:00,
2013-09-19 20:31:00,57.4,54.9,29.77,West,273,2.0,15.0,91,0.00,,,0.00,meteohub,2013-09-20 03:31:00,
2013-09-19 20:36:00,57.0,54.5,29.78,SW,218,5.0,12.0,91,0.00,,,0.00,meteohub,2013-09-20 03:36:00,
2013-09-19 20:41:00,57.0,54.7,29.78,SSW,203,0.0,11.0,92,0.00,,,0.00,meteohub,2013-09-20 03:41:00,
2013-09-19 20:46:00,56.8,54.5,29.78,West,272,3.0,10.0,92,0.00,,,0.00,meteohub,2013-09-20 03:46:00,
2013-09-19 20:52:00,56.8,54.5,29.78,West,267,0.0,11.0,92,0.00,,,0.00,meteohub,2013-09-20 03:52:00,
2013-09-19 20:57:00,56.8,54.5,29.78,SW,216,2.0,11.0,92,0.00,,,0.00,meteohub,2013-09-20 03:57:00,
2013-09-19 21:01:00,56.8,54.5,29.78,WSW,242,7.0,11.0,92,0.00,,,0.00,meteohub,2013-09-20 04:01:00,
2013-09-19 21:02:00,56.8,54.5,29.78,WSW,254,1.0,11.0,92,0.00,,,0.00,meteohub,2013-09-20 04:02:00,
2013-09-19 21:06:00,56.8,54.5,29.78,SW,220,2.0,10.0,92,0.00,,,0.00,meteohub,2013-09-20 04:06:00,
2013-09-19 21:12:00,56.8,54.5,29.78,WSW,257,7.0,10.0,92,0.00,,,0.00,meteohub,2013-09-20 04:12:00,
2013-09-19 21:17:00,56.8,54.5,29.78,WSW,239,7.0,10.0,92,0.00,,,0.00,meteohub,2013-09-20 04:17:00,
2013-09-19 21:22:00,56.8,54.5,29.78,WSW,240,2.0,8.0,92,0.00,,,0.00,meteohub,2013-09-20 04:22:00,
2013-09-19 21:27:00,56.8,54.5,29.78,SW,218,7.0,8.0,92,0.00,,,0.00,meteohub,2013-09-20 04:27:00,
2013-09-19 21:32:00,56.8,54.5,29.78,SW,232,7.0,10.0,92,0.00,,,0.00,meteohub,2013-09-20 04:32:00,
2013-09-19 21:37:00,56.8,54.5,29.78,WNW,292,1.0,10.0,92,0.00,,,0.00,meteohub,2013-09-20 04:37:00,
2013-09-19 21:42:00,56.8,54.5,29.78,WSW,245,5.0,10.0,92,0.00,,,0.00,meteohub,2013-09-20 04:42:00,
2013-09-19 21:47:00,56.7,54.3,29.78,SSW,204,3.0,11.0,92,0.00,,,0.00,meteohub,2013-09-20 04:47:00,
2013-09-19 21:52:00,56.5,54.1,29.78,WSW,255,7.0,11.0,92,0.00,,,0.00,meteohub,2013-09-20 04:52:00,
2013-09-19 21:57:00,56.3,54.0,29.77,WSW,241,4.0,11.0,92,0.00,,,0.00,meteohub,2013-09-20 04:57:00,
2013-09-19 22:02:00,56.1,53.8,29.78,WSW,240,8.0,14.0,92,0.00,,,0.00,meteohub,2013-09-20 05:02:00,
2013-09-19 22:07:00,56.1,53.8,29.78,WSW,250,9.0,14.0,92,0.00,,,0.00,meteohub,2013-09-20 05:07:00,
2013-09-19 22:12:00,56.1,53.8,29.78,West,264,2.0,14.0,92,0.00,,,0.00,meteohub,2013-09-20 05:12:00,
2013-09-19 22:17:00,56.1,54.1,29.78,SW,216,7.0,13.0,93,0.00,,,0.00,meteohub,2013-09-20 05:17:00,
2013-09-19 22:22:00,56.1,54.1,29.78,WSW,249,1.0,13.0,93,0.00,,,0.00,meteohub,2013-09-20 05:22:00,
2013-09-19 22:27:00,56.1,54.1,29.78,WSW,247,1.0,13.0,93,0.00,,,0.00,meteohub,2013-09-20 05:27:00,
2013-09-19 22:32:00,55.9,54.0,29.78,WNW,285,3.0,13.0,93,0.00,,,0.00,meteohub,2013-09-20 05:32:00,
2013-09-19 22:37:00,55.9,54.0,29.78,SW,231,7.0,11.0,93,0.00,,,0.00,meteohub,2013-09-20 05:37:00,
2013-09-19 22:42:00,55.9,54.0,29.78,WSW,253,7.0,11.0,93,0.00,,,0.00,meteohub,2013-09-20 05:42:00,
2013-09-19 22:47:00,55.9,54.0,29.78,SW,235,4.0,11.0,93,0.00,,,0.00,meteohub,2013-09-20 05:47:00,
2013-09-19 22:52:00,55.8,53.8,29.78,SW,227,1.0,10.0,93,0.00,,,0.00,meteohub,2013-09-20 05:52:00,
2013-09-19 22:57:00,55.8,53.8,29.79,SW,235,5.0,10.0,93,0.00,,,0.00,meteohub,2013-09-20 05:57:00,
2013-09-19 23:02:00,55.6,53.2,29.79,SSW,200,2.0,10.0,92,0.00,,,0.00,meteohub,2013-09-20 06:02:00,
2013-09-19 23:07:00,55.6,53.2,29.78,SSW,196,0.0,10.0,92,0.00,,,0.00,meteohub,2013-09-20 06:07:00,
2013-09-19 23:12:00,55.6,53.2,29.78,SW,219,0.0,9.0,92,0.00,,,0.00,meteohub,2013-09-20 06:12:00,
2013-09-19 23:17:00,55.4,53.1,29.78,SW,224,4.0,9.0,92,0.00,,,0.00,meteohub,2013-09-20 06:17:00,
2013-09-19 23:22:00,55.4,53.1,29.78,WSW,250,0.0,9.0,92,0.00,,,0.00,meteohub,2013-09-20 06:22:00,
2013-09-19 23:27:00,55.4,53.1,29.78,SSW,204,7.0,7.0,92,0.00,,,0.00,meteohub,2013-09-20 06:27:00,
2013-09-19 23:32:00,55.2,52.9,29.78,South,171,2.0,7.0,92,0.00,,,0.00,meteohub,2013-09-20 06:32:00,
2013-09-19 23:37:00,55.2,52.9,29.78,SW,225,4.0,7.0,92,0.00,,,0.00,meteohub,2013-09-20 06:37:00,
2013-09-19 23:42:00,55.2,53.2,29.78,SSE,154,0.0,8.0,93,0.00,,,0.00,meteohub,2013-09-20 06:42:00,
2013-09-19 23:47:00,55.2,53.2,29.78,SW,218,3.0,8.0,93,0.00,,,0.00,meteohub,2013-09-20 06:47:00,
2013-09-19 23:52:00,55.2,53.2,29.78,SSW,213,0.0,8.0,93,0.00,,,0.00,meteohub,2013-09-20 06:52:00,
2013-09-19 23:57:00,55.2,53.2,29.78,WSW,238,4.0,7.0,93,0.00,,,0.00,meteohub,2013-09-20 06:57:00,